FLOCK 4BE 4

导读 | 星芒AI

FLOCK 4BE 4 是由 Planet Labs 运营的 Dove 卫星之一,属于其 Flock 4B 系列。该卫星是一颗小型地球观测卫星,主要用于高分辨率光学成像,支持全球范围的日常影像采集。它运行在低地球轨道,与其他 Dove 卫星协同工作,提供频繁的重访周期和广泛的地理覆盖。Flock 4B 系列卫星增强了 Planet 的影像能力,广泛应用于环境监测、农业、城市规划和灾害响应等领域。

基本信息
目录编号:
60482
目录名称:
FLOCK 4BE 4
国际标识:
2024-149Q
轨道中心:
EARTH
卫星名称:
FLOCK 4BE 4
卫星全名:
FLOCK 4BE 4
卫星状态:
已陨落 最后检测时间 2025-11-18
发射日期:
2024-08-16 UTC
国别 :
美国 (US)
星等 :
--
轨道信息
数据来源 国际轨道数据
星历时间: 2025-11-18T17:02:31+0800
轨道信息已过期27天
半长轴: 6573.418km
偏心率: 0.0010961
轨道倾角: 97.372°
近地点辐角 281.979°
升交点赤经 53.715°
平近点角 78.028°
近地点: 188.077km
远地点: 202.489km
周期: 88.399分钟
每日圈数: 16.289808
详细信息
使用方式:
暂无